Welcome to Hicks Airfield

Driving Safety »



  • Current KAFW METAR
    (5.8nm NE) MVFR
    KAFW 200853Z 04006KT 10SM OVC014 16/11 A3001 RMK AO2 SLP156 T01610111 58001
  • Flappings Newsletter
    The official newsletter of HAPA.
    Read »
  • Property Owner's Portal
    Create an account on our new secure portal for access to secure documents.
    Log-in »
  • Air Traffic
    Hear Hicks air traffic from anywhere.
    Listen »